Location: Rowland
(34.5359°N, 79.2929°W)
Time: 14:57:05
(UTC+00:00)

SR - Pass Details

Date: 03 October 2022
Orbit: 577 x 875 km, 66.7° (Epoch: 28 November)

Event Time Altitude Azimuth Distance (km) Brightness Sun altitude
Rises 10:16:47 0° 345° (NNW) 3,304 ? -12.5°
Reaches altitude 10° 10:19:43 10° 358° (N) 2,318 ? -11.9°
Maximum altitude 10:24:01 25° 53° (NE) 1,460 ? -11.0°
Drops below altitude 10° 10:28:02 10° 108° (ESE) 2,144 ? -10.2°
Sets 10:30:37 0° 122° (ESE) 3,003 ? -9.6°
